Regional Weather Roundup
Issued by NWS

Home | Current Version | Previous Version | Text Only | Print | Product List | Glossary On
Versions: 1 2 3 4 5 6 7 8 9 10 11 12 13 14 15 16 17 18 19 20 21 22 23 24 25 26 27 28
000
ASUS45 KTFX 251210
RWRMT
MONTANA REGIONAL WEATHER ROUNDUP
NATIONAL WEATHER SERVICE GREAT FALLS MT
600 AM MDT WED MAY 25 2016

NOTE: "FAIR" INDICATES FEW OR NO CLOUDS BELOW 12000 FEET WITH NO
SIGNIFICANT WEATHER AND/OR OBSTRUCTIONS TO VISIBILITY.

MTZ001>007-043-251300-
WEST OF THE DIVIDE

CITY           SKY/WX    TMP DP  RH WIND       PRES   REMARKS
KALISPELL      CLOUDY    44  44 100 CALM      29.95R
MISSOULA       MOCLDY    36  34  92 CALM      30.00R
BUTTE          CLOUDY    31  29  92 S3        29.99R
MULLAN PASS    FOG       38  38 100 NW6       29.99S VSB 1/2
ANACONDA         N/A     32  30  93 CALM      29.98S
DEER LODGE       N/A     36  36 100 CALM      30.00R
EUREKA           N/A     39  37  93 CALM      29.95R
HAMILTON         N/A     37  36  93 CALM      29.99R
LIBBY            N/A     39  37  93 CALM      29.97S
PLAINS           N/A     41  38  89 CALM      29.99R
$$

MTZ008-052>055-251300-
SOUTHWEST MONTANA

CITY           SKY/WX    TMP DP  RH WIND       PRES   REMARKS
BOZEMAN        CLOUDY    41  38  89 SE7       29.95S
DILLON         MOCLDY    40  36  86 SW6       29.96R
ENNIS          CLOUDY    43  41  93 CALM      30.01S
TWIN BRIDGES     N/A     41  35  79 CALM      29.96R
$$

MTZ009-010-012-014-046-048-049-054-251300-
EAST SLOPES AND CENTRAL MONTANA

CITY           SKY/WX    TMP DP  RH WIND       PRES   REMARKS
CUT BANK       CLEAR     38  36  92 NW5       29.87S
GREAT FALLS    CLEAR     38  35  89 S8        29.89S
MALMSTROM AFB  CLEAR     38  37  97 S2        29.90S
HELENA         CLEAR     40  37  89 CALM      29.94R
CHOTEAU          N/A     41  36  81 SW7       29.89S
CONRAD           N/A     34  34 100 SW3       29.91R
$$

MTZ011-013-016-021-045-047-050-051-251300-
NORTH CENTRAL MONTANA

CITY           SKY/WX    TMP DP  RH WIND       PRES   REMARKS
HAVRE            N/A    N/A N/A N/A MISG      29.86F
LEWISTOWN      CLOUDY    40  36  86 SE5       29.91S
N BAR RANCH      N/A     34  32  93 NW5       29.93S
CHINOOK          N/A     39  39 100 CALM      29.89R
$$

MTZ017>020-022>027-061-062-251300-
NORTHEAST MONTANA

CITY           SKY/WX    TMP DP  RH WIND       PRES   REMARKS
GLASGOW        MOCLDY    45  41  86 E3        29.88R
JORDAN           N/A     46  43  89 CALM      29.88R
SIDNEY         CLOUDY    52  48  87 NW7       29.84R
WOLF POINT     LGT RAIN  51  49  92 W5        29.88S
PLENTYWOOD       N/A     52  48  87 N7        29.88F
POPLAR           N/A     48  48 100 N8        29.88S
SCOBEY           N/A     41  31  68 CALM      29.88S
$$

MTZ028>42-056>058-251300-
SOUTHCENTRAL AND SOUTHEAST MONTANA

CITY           SKY/WX    TMP DP  RH WIND       PRES   REMARKS
BAKER          CLOUDY    50  46  86 W13       29.84R
BILLINGS       CLOUDY    46  44  93 W5        29.91S
LIVINGSTON     CLOUDY    41  37  86 NW7       29.94R
MILES CITY     CLOUDY    51  48  89 NE6       29.88S
EKALAKA          N/A     47  44  89 W5        29.85R
FORSYTH          N/A     54  52  94 SW6       29.87S
$$

REGIONAL REPORTS...DAKOTAS

CITY           SKY/WX    TMP DP  RH WIND       PRES   REMARKS
WILLISTON      CLOUDY    52  47  83 NE12      29.84F
MINOT          RAIN      58  55  90 CALM      29.85S FOG
DICKINSON      CLOUDY    50  48  93 E7        29.81S
BEACH          LGT RAIN  48  48 100 N7        29.85F
CROSBY         MOCLDY    50  50 100 NW7       29.88F
WATFORD CITY   MOCLDY    50  48  93 NE6       29.84R
BISMARCK       CLOUDY    57  56  96 NE6       29.81S
GRAND FORKS    CLOUDY    60  53  77 E9        29.81F
FARGO          CLOUDY    66  51  58 E16       29.79F
BUFFALO SD       N/A     52  47  83 SW3       29.77S
RAPID CITY     CLOUDY    47  45  93 W5        29.86R
$$

REGIONAL REPORTS...WYOMING/IDAHO/WASHINGTON

CITY           SKY/WX    TMP DP  RH WIND       PRES   REMARKS
GILLETTE         N/A     48  46  93 NW5       29.89S
SHERIDAN       CLOUDY    48  45  89 CALM      29.91S
BUFFALO WY     CLOUDY    46  42  86 N5        29.94R
CODY           CLOUDY    45  43  93 CALM      29.92S
YELLOWSTONE LA   N/A     33  31  92 CALM      30.02R
IDAHO FALLS    CLOUDY    45  43  93 N5        29.98S
SALMON         CLOUDY    45  37  76 CALM      29.97R
BOISE          PTCLDY    51  41  68 W6        29.96R
SPOKANE        PTCLDY    49  45  86 S6        29.95R
$$

REGIONAL REPORTS...ALBERTA

CITY           SKY/WX    TMP DP  RH WIND       PRES   REMARKS
EDMONTON       CLEAR     45  39  81 SE6       29.83S
CALGARY        CLEAR     43  39  87 S3        29.86R
LETHBRIDGE     PTCLDY    37  36  93 S9        29.85S WCI  31
MEDICINE HAT   CLEAR     37  37 100 E3        29.88R
$$

REGIONAL REPORTS...SASKATCHEWAN

CITY           SKY/WX    TMP DP  RH WIND       PRES   REMARKS
SWIFT CURRENT  FOG       45  45 100 SW6       29.87R VSB 1/8
REGINA         PTCLDY    39  37  93 S2        29.89S
SASKATOON      FOG       43  43 100 NE9       29.90S VSB 1/2
$$




USA.gov is the U.S. government's official web portal to all federal, state and local government web resources and services.